Regional Weather Roundup
Issued by NWS

Home | Current Version | Previous Version | Text Only | Print | Product List | Glossary Off
Versions: 1 2 3 4 5 6 7 8 9 10 11 12 13 14 15 16 17 18 19 20 21 22 23 24 25 26 27 28 29 30 31 32 33 34 35 36 37 38 39 40 41 42 43 44 45 46 47 48 49 50

000
ASUS43 KFSD 011402
RWRSD

WEATHER ROUNDUP FOR SOUTH DAKOTA
NATIONAL WEATHER SERVICE SIOUX FALLS SD
800 AM CST SUN MAR 01 2015

NOTE: "FAIR" INDICATES FEW OR NO CLOUDS BELOW 12,000 FEET WITH NO
SIGNIFICANT WEATHER AND/OR OBSTRUCTIONS TO VISIBILITY.


SDZ001>005-009-010-012>017-011500-
NORTHWEST AND NORTH CENTRAL SOUTH DAKOTA

CITY           SKY/WX    TMP DP  RH WIND       PRES   REMARKS
BUFFALO          N/A      8   4  83 W9        30.12R WCI  -5
FAITH            N/A     14   6  70 W15       30.21R WCI  -1
MOBRIDGE       CLEAR      8   3  80 CALM      30.19S
$$

SDZ012>016-024>037-041>051-057-063-072>074-011500-
SOUTHWEST AND SOUTH CENTRAL SOUTH DAKOTA

CITY           SKY/WX    TMP DP  RH WIND       PRES   REMARKS
RAPID CTY ARPT PTCLDY     6   4  91 CALM      30.23R
PIERRE         PTCLDY    13   7  77 W8        30.27S WCI   2
CUSTER         CLEAR      5   1  83 W7        30.08R WCI  -7
ELLSWORTH AFB  CLEAR      9   4  79 W2        30.21S
PHILIP         CLEAR     10   5  80 NW5       30.28S WCI   2
PINE RIDGE     CLOUDY    17  12  80 SW6       30.25R WCI   9
WINNER         PTSUNNY   19  11  70 SW7       30.30R WCI  10
$$

SDZ004>011-016>023-039-040-011500-
NORTHEAST SOUTH DAKOTA

CITY           SKY/WX    TMP DP  RH WIND       PRES   REMARKS
ABERDEEN       PTCLDY     3  -2  79 SW6       30.25S WCI  -8
WATERTOWN      PTCLDY     7   1  76 W12       30.22S WCI  -8
SISSETON         N/A     10   3  73 W16       30.22F WCI  -7
$$

SDZ017-020-022-023-036>040-048>070-011500-
SOUTHEAST SOUTH DAKOTA

CITY           SKY/WX    TMP DP  RH WIND       PRES   REMARKS
SIOUX FALLS    MOCLDY    12   8  84 SW3       30.30R
HURON          MOCLDY     9   4  80 S6        30.29S WCI  -1
MITCHELL       MOCLDY    17  11  77 SW5       30.32S WCI  10
YANKTON        PTCLDY    18  12  79 NW7       30.36R WCI   8
$$

ABBREVIATIONS USED IN REMARKS
   TC - TEMPERATURE IN CELSIUS
  WCI - WIND CHILL INDEX
   HX - HEAT INDEX
  VSB - VISIBILITY




USA.gov is the U.S. government's official web portal to all federal, state and local government web resources and services.